This demonstration page uses our WeatherBlox Daily Observations layout. Learn more.

Left ArrowRight Arrow

44.89941, -97.11507

Hourly Observations for November 14, 2020

Temp ( °F °C ) Dew Point ( °F °C ) Humidity (%) Winds ( mph kmh ) Pressure ( in mb ) Visibility ( mi km ) Precip ( " mm )
12:53 am 00:53 Clear 30 -1.1 25 -3.9 82 82 SSE 15 24 29.59 1002 10 16 0.00 0.00
1:53 am 01:53 Clear 31 -0.6 25 -3.9 79 79 SSE 17 28 29.55 1001 10 16 0.00 0.00
2:53 am 02:53 Clear 31 -0.6 25 -3.9 79 79 SSE 18 30 29.53 1000 10 16 0.00 0.00
3:53 am 03:53 Clear 31 -0.6 25 -3.9 79 79 SSE 17 28 29.52 1000 10 16 0.00 0.00
4:53 am 04:53 Clear 30 -1.1 25 -3.9 82 82 SSE 16 26 29.48 998 10 16 0.00 0.00
5:53 am 05:53 Clear 31 -0.6 26 -3.3 82 82 SSE 18 30 29.47 998 10 16 0.00 0.00
6:53 am 06:53 Clear 30 -1.1 26 -3.3 85 85 S 15 24 29.46 998 10 16 0.00 0.00
7:53 am 07:53 Sunny 29 -1.7 26 -3.3 89 89 SSE 14 22 29.44 997 10 16 0.00 0.00
8:53 am 08:53 Sunny 31 -0.6 27 -2.8 85 85 S 12 19 29.47 998 10 16 0.00 0.00
9:53 am 09:53 Mostly Sunny 34 1.1 29 -1.7 82 82 S 12 19 29.43 997 10 16 0.00 0.00
10:53 am 10:53 Partly Cloudy 34 1.1 29 -1.7 82 82 S 13 20 29.44 997 10 16 0.00 0.00
11:53 am 11:53 Sunny 37 2.8 30 -1.1 76 76 SSW 10 17 29.42 996 10 16 0.00 0.00
12:53 pm 12:53 Sunny 38 3.3 31 -0.6 76 76 SSW 9 15 29.42 996 10 16 0.00 0.00
1:53 pm 13:53 Sunny 40 4.4 31 -0.6 70 70 S 3 6 29.41 996 10 16 0.00 0.00
2:53 pm 14:53 Sunny 41 5 32 0 70 70 S 6 9 29.41 996 10 16 0.00 0.00
3:53 pm 15:53 Sunny 39 3.9 33 0.6 79 79 SW 6 9 29.45 997 10 16 0.00 0.00
4:53 pm 16:53 Partly Cloudy 40 4.4 30 -1.1 68 68 NW 6 9 29.48 998 10 16 0.00 0.00
5:53 pm 17:53 Cloudy 39 3.9 31 -0.6 73 73 NW 3 6 29.50 999 10 16 0.00 0.00
6:53 pm 18:53 Cloudy 41 5 31 -0.6 67 67 WNW 12 19 29.52 1000 10 16 0.00 0.00
7:53 pm 19:53 Cloudy 42 5.6 29 -1.7 60 60 NW 15 24 29.53 1000 10 16 0.00 0.00
8:53 pm 20:53 Mostly Cloudy 41 5 27 -2.8 57 57 NW 13 20 29.54 1001 10 16 0.00 0.00
9:53 pm 21:53 Clear 39 3.9 27 -2.8 62 62 WNW 12 19 29.56 1001 10 16 0.00 0.00
10:53 pm 22:53 Cloudy 39 3.9 28 -2.2 65 65 NW 21 33 29.57 1001 10 16 0.00 0.00
11:41 pm 23:41 Cloudy 36 2.2 27 -2.8 70 70 NW 28 44 29.62 1003 10 16 0.00 0.00
11:53 pm 23:53 Mostly Cloudy 35 1.7 25 -3.9 67 67 NW 28 44 29.61 1003 10 16 0.00 0.00

Powered by AerisWeather